^^
Saratoga-Weather Station Historical Data
Daily Summary for September 3, 2021 Units:  English    Metric   Both
Daily Weekly Monthly Yearly Custom
  High: Low: Average:
Temperature: 70.5 °F 54 °F 62.8 °F
Dew Point: 59.7 °F 51.6 °F 55.8 °F
Humidity: 93% 63% 79%
Wind Speed: 13mph 0mph 2.7mph
Wind Gust: 18mph - -
Wind- - South
Pressure: 29.9 in 29.5 in -
Precipitation: 0.24 in    
Historical Graphs
 
 
Tabular Data for September 3, 2021
Time Temperature Dew Point Pressure Wind Wind Speed Wind Gust Humidity Rainfall Rate (Hourly) solar
00:02 64.8 °F 55.9 °F 29.6 in NE 6 mph 6 mph 73% 0 in 0 W/m2
00:07 64.9 °F 56.1 °F 29.6 in ESE 2.9 mph 7 mph 73% 0 in 0 W/m2
00:12 64.9 °F 56.1 °F 29.6 in North 4.9 mph 11 mph 73% 0 in 0 W/m2
00:17 65.1 °F 55.9 °F 29.6 in NE 2 mph 4 mph 72% 0 in 0 W/m2
00:22 64.9 °F 55.4 °F 29.6 in NNW 2.9 mph 11 mph 71% 0 in 0 W/m2
00:27 65.1 °F 55.4 °F 29.6 in NW 0.9 mph 7 mph 71% 0 in 0 W/m2
00:32 65.3 °F 55.6 °F 29.6 in NE 4.9 mph 7 mph 71% 0 in 0 W/m2
00:37 65.5 °F 55.4 °F 29.6 in ENE 2 mph 5 mph 70% 0 in 0 W/m2
00:42 65.7 °F 55.2 °F 29.6 in ENE 2 mph 9 mph 69% 0 in 0 W/m2
00:47 65.7 °F 55.2 °F 29.6 in NE 2 mph 7 mph 69% 0 in 0 W/m2
00:52 65.7 °F 55.2 °F 29.6 in North 2.9 mph 7 mph 69% 0 in 0 W/m2
00:57 65.7 °F 54.9 °F 29.6 in WSW 0.9 mph 12 mph 68% 0 in 0 W/m2
01:02 65.8 °F 55 °F 29.6 in North 0.9 mph 7 mph 68% 0 in 0 W/m2
01:07 65.7 °F 54.9 °F 29.6 in NE 2 mph 12 mph 68% 0 in 0 W/m2
01:12 65.7 °F 54.9 °F 29.6 in NE 4 mph 4 mph 68% 0 in 0 W/m2
01:17 65.5 °F 54.7 °F 29.6 in NNW 2 mph 8 mph 68% 0 in 0 W/m2
01:22 65.7 °F 54.9 °F 29.6 in WSW 2.9 mph 6 mph 68% 0 in 0 W/m2
01:27 65.7 °F 54.3 °F 29.6 in NNE 0.9 mph 4 mph 67% 0 in 0 W/m2
01:32 65.7 °F 54.9 °F 29.6 in North 2.9 mph 4 mph 68% 0 in 0 W/m2
01:37 65.7 °F 54.9 °F 29.6 in NNE 4.9 mph 6 mph 68% 0 in 0 W/m2
01:42 65.7 °F 54.9 °F 29.6 in ENE 0.9 mph 5 mph 68% 0 in 0 W/m2
01:47 65.5 °F 54.7 °F 29.6 in ENE 0.9 mph 4 mph 68% 0 in 0 W/m2
01:52 65.7 °F 54.9 °F 29.6 in ENE 0.9 mph 10 mph 68% 0 in 0 W/m2
01:57 65.7 °F 54.3 °F 29.6 in ESE 2.9 mph 7 mph 67% 0 in 0 W/m2
02:02 65.7 °F 54.3 °F 29.6 in NW 2 mph 10 mph 67% 0 in 0 W/m2
02:07 65.8 °F 54.5 °F 29.6 in ENE 0.9 mph 9 mph 67% 0 in 0 W/m2
02:12 66 °F 54.3 °F 29.6 in NW 2 mph 10 mph 66% 0 in 0 W/m2
02:17 66 °F 54.7 °F 29.6 in NNE 0.9 mph 4 mph 67% 0 in 0 W/m2
02:22 66 °F 54.7 °F 29.6 in NNW 2 mph 8 mph 67% 0 in 0 W/m2
02:27 66 °F 54.3 °F 29.6 in NW 0.9 mph 5 mph 66% 0 in 0 W/m2
02:32 66 °F 54.7 °F 29.6 in North 2 mph 8 mph 67% 0 in 0 W/m2
02:37 66 °F 54.7 °F 29.6 in North 2 mph 3 mph 67% 0 in 0 W/m2
02:42 66 °F 54.7 °F 29.6 in NNW 0.9 mph 6 mph 67% 0 in 0 W/m2
02:47 65.8 °F 54.5 °F 29.6 in North 2 mph 4 mph 67% 0 in 0 W/m2
02:52 65.8 °F 54.5 °F 29.6 in NE 0.9 mph 4 mph 67% 0 in 0 W/m2
02:57 65.8 °F 54.5 °F 29.6 in South 2 mph 7 mph 67% 0 in 0 W/m2
03:02 65.8 °F 54.5 °F 29.6 in North 2 mph 3 mph 67% 0 in 0 W/m2
03:07 66 °F 54.7 °F 29.6 in NNE 2 mph 7 mph 67% 0 in 0 W/m2
03:12 66 °F 54.7 °F 29.6 in Calm   5 mph 67% 0 in 0 W/m2
03:17 66 °F 54.7 °F 29.6 in NE 4 mph 6 mph 67% 0 in 0 W/m2
03:22 66.2 °F 54.5 °F 29.6 in ENE 4 mph 5 mph 66% 0 in 0 W/m2
03:27 66.4 °F 54.7 °F 29.6 in East 2 mph 7 mph 66% 0 in 0 W/m2
03:32 66.4 °F 54.7 °F 29.5 in North 0.9 mph 4 mph 66% 0 in 0 W/m2
03:37 66.4 °F 54.7 °F 29.5 in East 0.9 mph 4 mph 66% 0 in 0 W/m2
03:42 66.4 °F 54.7 °F 29.5 in NE 2 mph 3 mph 66% 0 in 0 W/m2
03:47 66.2 °F 54.9 °F 29.5 in ENE 2 mph 3 mph 67% 0 in 0 W/m2
03:52 66 °F 54.7 °F 29.5 in ENE 2.9 mph 6 mph 67% 0 in 0 W/m2
03:57 66.2 °F 54.9 °F 29.5 in East 4 mph 7 mph 67% 0 in 0 W/m2
04:02 66.2 °F 54.9 °F 29.5 in ESE 2.9 mph 8 mph 67% 0 in 0 W/m2
04:07 66.2 °F 54.9 °F 29.5 in NE 4 mph 5 mph 67% 0 in 0 W/m2
04:12 66 °F 54.7 °F 29.5 in ESE 6 mph 9 mph 67% 0 in 0 W/m2
04:17 66.2 °F 54.9 °F 29.5 in East 0.9 mph 9 mph 67% 0 in 0 W/m2
04:22 66.2 °F 54.9 °F 29.5 in ENE 0.9 mph 10 mph 67% 0 in 0 W/m2
04:27 66.2 °F 55.4 °F 29.5 in ENE 2.9 mph 5 mph 68% 0 in 0 W/m2
04:32 66.2 °F 55.4 °F 29.5 in East 0.9 mph 2 mph 68% 0 in 0 W/m2
04:37 66.2 °F 55.4 °F 29.5 in ENE 4 mph 9 mph 68% 0 in 0 W/m2
04:42 66.4 °F 55.6 °F 29.5 in ENE 4.9 mph 7 mph 68% 0 in 0 W/m2
04:47 66.6 °F 55.6 °F 29.5 in East 6.9 mph 9 mph 68% 0 in 0 W/m2
04:52 66.6 °F 55.6 °F 29.5 in East 2.9 mph 12 mph 68% 0 in 0 W/m2
04:57 66.6 °F 55.6 °F 29.5 in NNE 4 mph 8 mph 68% 0 in 0 W/m2
05:02 66.6 °F 55.6 °F 29.5 in ENE 6.9 mph 12 mph 68% 0 in 0 W/m2
05:07 66.7 °F 55.8 °F 29.5 in ESE 6.9 mph 7 mph 68% 0 in 0 W/m2
05:12 66.7 °F 55.8 °F 29.5 in East 2 mph 4 mph 68% 0 in 0 W/m2
05:17 66.7 °F 55.8 °F 29.5 in East 8.9 mph 11 mph 68% 0 in 0 W/m2
05:22 66.9 °F 55.9 °F 29.5 in ESE 2.9 mph 9 mph 68% 0 in 0 W/m2
05:27 66.9 °F 55.9 °F 29.5 in North 11 mph 11 mph 68% 0 in 0 W/m2
05:32 67.1 °F 56.1 °F 29.5 in NNW 2 mph 9 mph 68% 0 in 0 W/m2
05:37 67.1 °F 55.8 °F 29.5 in ENE 10.1 mph 10 mph 67% 0 in 0 W/m2
05:42 67.3 °F 55.9 °F 29.5 in NW 2.9 mph 5 mph 67% 0 in 0 W/m2
05:48 67.3 °F 55.9 °F 29.5 in NE 4 mph 6 mph 67% 0 in 0 W/m2
05:53 67.5 °F 56.1 °F 29.5 in East 4.9 mph 6 mph 67% 0 in 0 W/m2
05:58 67.5 °F 56.1 °F 29.5 in North 4 mph 13 mph 67% 0 in 0 W/m2
06:03 67.5 °F 56.1 °F 29.5 in SE 2.9 mph 6 mph 67% 0 in 0 W/m2
06:08 67.5 °F 56.1 °F 29.5 in NNW 4 mph 13 mph 67% 0 in 0 W/m2
06:13 67.3 °F 56.3 °F 29.5 in WNW 8.9 mph 12 mph 68% 0 in 0 W/m2
06:18 67.1 °F 56.1 °F 29.5 in ESE 2 mph 5 mph 68% 0 in 0 W/m2
06:23 66.9 °F 55.9 °F 29.5 in NNE 2 mph 6 mph 68% 0 in 0 W/m2
06:28 66.9 °F 55.9 °F 29.5 in East 4 mph 5 mph 68% 0 in 0 W/m2
06:33 66.9 °F 55.6 °F 29.5 in NE 6 mph 10 mph 67% 0 in 0 W/m2
06:38 66.9 °F 55.9 °F 29.5 in NNW 2.9 mph 6 mph 68% 0 in 0 W/m2
06:43 66.9 °F 55.9 °F 29.5 in SE 6.9 mph 9 mph 68% 0 in 0 W/m2
06:48 66.7 °F 55.4 °F 29.5 in NW 2.9 mph 8 mph 67% 0 in 0 W/m2
06:53 66.9 °F 55.6 °F 29.5 in NNW 6 mph 9 mph 67% 0 in 0 W/m2
06:58 66.9 °F 55.6 °F 29.5 in ENE 2.9 mph 11 mph 67% 0 in 0 W/m2
07:03 66.7 °F 55.8 °F 29.5 in North 4 mph 9 mph 68% 0 in 0 W/m2
07:08 66.6 °F 56.1 °F 29.5 in NNW 2 mph 11 mph 69% 0 in 0 W/m2
07:13 66.4 °F 56.3 °F 29.5 in North 4.9 mph 5 mph 70% 0 in 0 W/m2
07:18 66 °F 55.9 °F 29.5 in ENE 0.9 mph 4 mph 70% 0 in 0 W/m2
07:23 65.8 °F 55.4 °F 29.5 in NE 2.9 mph 7 mph 69% 0 in 0 W/m2
07:28 66 °F 55.2 °F 29.5 in ENE 2.9 mph 5 mph 68% 0 in 0 W/m2
07:33 66.4 °F 55.6 °F 29.5 in NNE 2 mph 9 mph 68% 0 in 0 W/m2
07:38 66.6 °F 55.6 °F 29.5 in NE 2 mph 3 mph 68% 0 in 0 W/m2
07:43 66.6 °F 55.6 °F 29.5 in NE 4.9 mph 7 mph 68% 0 in 0 W/m2
07:48 66.7 °F 55.4 °F 29.5 in ENE 4.9 mph 9 mph 67% 0 in 0 W/m2
07:53 66.7 °F 55.4 °F 29.5 in NE 6.9 mph 10 mph 67% 0 in 0 W/m2
07:58 66.7 °F 55.4 °F 29.5 in ESE 8.1 mph 12 mph 67% 0 in 5 W/m2
08:03 66.9 °F 55.9 °F 29.5 in North 0.9 mph 10 mph 68% 0 in 0 W/m2
08:08 66.9 °F 55.9 °F 29.5 in NE 2 mph 12 mph 68% 0 in 5 W/m2
08:13 67.1 °F 56.1 °F 29.5 in NNE 2 mph 4 mph 68% 0 in 11 W/m2
08:18 67.5 °F 56.5 °F 29.5 in NE 2 mph 13 mph 68% 0 in 12 W/m2
08:23 67.3 °F 56.3 °F 29.5 in NE 2.9 mph 13 mph 68% 0 in 18 W/m2
08:28 67.1 °F 57 °F 29.5 in NNW 2 mph 5 mph 70% 0 in 18 W/m2
08:33 66.7 °F 57 °F 29.5 in North 2.9 mph 4 mph 71% 0 in 16 W/m2
08:38 66.4 °F 57.4 °F 29.5 in NW 2 mph 7 mph 73% 0.01 in 18 W/m2
08:43 65.8 °F 57.4 °F 29.5 in North 4.9 mph 8 mph 74% 0.01 in 21 W/m2
08:48 65.5 °F 57.4 °F 29.5 in East 2.9 mph 6 mph 75% 0.01 in 21 W/m2
08:53 65.3 °F 57.6 °F 29.5 in North 0.9 mph 2 mph 76% 0.01 in 32 W/m2
08:58 64.9 °F 57.2 °F 29.5 in NE 2.9 mph 4 mph 76% 0.01 in 33 W/m2
09:03 64.9 °F 57.6 °F 29.5 in East 4 mph 13 mph 77% 0.01 in 37 W/m2
09:08 64.8 °F 57.4 °F 29.5 in East 4 mph 7 mph 77% 0.01 in 28 W/m2
09:13 64.6 °F 57.6 °F 29.5 in NNW 2 mph 5 mph 78% 0.02 in 21 W/m2
09:18 64.6 °F 57.9 °F 29.5 in NE 2 mph 14 mph 79% 0.02 in 18 W/m2
09:23 64.2 °F 57.6 °F 29.5 in East 2.9 mph 7 mph 79% 0.02 in 26 W/m2
09:28 64.2 °F 57.2 °F 29.5 in ESE 2 mph 14 mph 78% 0.02 in 28 W/m2
09:33 64.2 °F 57.6 °F 29.5 in NNE 2.9 mph 9 mph 79% 0.02 in 16 W/m2
09:38 64.4 °F 57 °F 29.5 in NE 0.9 mph 3 mph 77% 0.01 in 19 W/m2
09:43 64.6 °F 57.2 °F 29.5 in ENE 2.9 mph 9 mph 77% 0.01 in 19 W/m2
09:48 64.6 °F 56.8 °F 29.5 in NNE 4.9 mph 5 mph 76% 0.01 in 28 W/m2
09:53 64.8 °F 57 °F 29.5 in South 0.9 mph 7 mph 76% 0.01 in 44 W/m2
09:58 64.8 °F 57 °F 29.5 in NNE 0.9 mph 5 mph 76% 0.01 in 42 W/m2
10:03 64.8 °F 57 °F 29.5 in ENE 0.9 mph 5 mph 76% 0.01 in 37 W/m2
10:08 64.8 °F 57 °F 29.5 in NE 2.9 mph 5 mph 76% 0.01 in 44 W/m2
10:13 64.9 °F 56.8 °F 29.5 in North 2 mph 5 mph 75% 0 in 47 W/m2
10:18 64.9 °F 57.2 °F 29.5 in ESE 0.9 mph 4 mph 76% 0 in 37 W/m2
10:23 64.9 °F 57.2 °F 29.5 in ESE 2.9 mph 5 mph 76% 0 in 42 W/m2
10:28 64.9 °F 56.8 °F 29.5 in SE 2 mph 10 mph 75% 0 in 83 W/m2
10:33 65.1 °F 57.4 °F 29.5 in ENE 8.9 mph 10 mph 76% 0 in 54 W/m2
10:38 65.3 °F 57.2 °F 29.5 in ESE 2 mph 6 mph 75% 0 in 81 W/m2
10:43 65.5 °F 57.4 °F 29.5 in East 6.9 mph 10 mph 75% 0 in 88 W/m2
10:48 65.8 °F 57.4 °F 29.5 in East 6 mph 6 mph 74% 0 in 77 W/m2
10:53 66 °F 57.6 °F 29.5 in ENE 4 mph 10 mph 74% 0 in 81 W/m2
10:58 66.4 °F 57.4 °F 29.5 in WNW 2.9 mph 5 mph 73% 0 in 77 W/m2
11:03 66.6 °F 57.2 °F 29.5 in East 2 mph 4 mph 72% 0 in 76 W/m2
11:08 66.7 °F 57.4 °F 29.5 in NE 4 mph 6 mph 72% 0 in 102 W/m2
11:13 67.1 °F 57.4 °F 29.5 in East 2 mph 3 mph 71% 0 in 114 W/m2
11:18 67.5 °F 57.4 °F 29.5 in North 2 mph 7 mph 70% 0 in 105 W/m2
11:23 67.6 °F 57.6 °F 29.5 in ENE 8.1 mph 8 mph 70% 0 in 83 W/m2
11:28 67.6 °F 57 °F 29.5 in ENE 2 mph 8 mph 69% 0 in 81 W/m2
11:33 67.8 °F 57.2 °F 29.5 in WSW 0.9 mph 7 mph 69% 0 in 81 W/m2
11:38 67.8 °F 56.8 °F 29.5 in ENE 4.9 mph 10 mph 68% 0 in 83 W/m2
11:43 68.2 °F 57.2 °F 29.5 in North 2 mph 6 mph 68% 0 in 93 W/m2
11:48 68.2 °F 57.2 °F 29.5 in East 2.9 mph 5 mph 68% 0 in 93 W/m2
11:53 68.4 °F 57.4 °F 29.5 in ENE 4 mph 6 mph 68% 0 in 120 W/m2
11:58 68.5 °F 57.9 °F 29.5 in SSE 13 mph 13 mph 69% 0 in 109 W/m2
12:03 68.5 °F 57.6 °F 29.5 in North 2.9 mph 6 mph 68% 0 in 125 W/m2
12:08 68.5 °F 57.6 °F 29.5 in North 2 mph 11 mph 68% 0 in 146 W/m2
12:13 68.5 °F 57.6 °F 29.5 in NNE 4.9 mph 9 mph 68% 0 in 156 W/m2
12:18 68.7 °F 57.4 °F 29.5 in NNW 4.9 mph 5 mph 67% 0 in 158 W/m2
12:23 69.1 °F 57.7 °F 29.5 in NW 0.9 mph 7 mph 67% 0 in 190 W/m2
12:29 69.4 °F 57.6 °F 29.5 in ENE 4.9 mph 9 mph 66% 0 in 158 W/m2
12:34 69.6 °F 57.4 °F 29.5 in NNE 6.9 mph 10 mph 65% 0 in 171 W/m2
12:39 69.8 °F 57.9 °F 29.5 in NNW 2 mph 6 mph 66% 0 in 202 W/m2
12:44 70.2 °F 57.9 °F 29.5 in NNW 0.9 mph 3 mph 65% 0 in 223 W/m2
12:49 70.2 °F 57.9 °F 29.5 in NE 2 mph 6 mph 65% 0 in 144 W/m2
12:54 70.3 °F 57.6 °F 29.5 in WNW 4.9 mph 8 mph 64% 0 in 139 W/m2
12:59 70.5 °F 57.7 °F 29.5 in NNE 2.9 mph 15 mph 64% 0 in 90 W/m2
13:04 70.5 °F 57.7 °F 29.5 in SE 2 mph 8 mph 64% 0 in 58 W/m2
13:09 70.3 °F 57.2 °F 29.5 in NE 2.9 mph 15 mph 63% 0 in 65 W/m2
13:14 70.3 °F 57.6 °F 29.5 in NNE 0.9 mph 5 mph 64% 0 in 83 W/m2
13:19 70.3 °F 57.6 °F 29.5 in NE 4 mph 9 mph 64% 0 in 54 W/m2
13:24 70.2 °F 57.9 °F 29.5 in NNW 2 mph 6 mph 65% 0 in 37 W/m2
13:29 69.6 °F 58.1 °F 29.5 in WNW 4 mph 9 mph 67% 0 in 14 W/m2
13:34 69.1 °F 58.8 °F 29.6 in NW 11 mph 14 mph 70% 0.01 in 19 W/m2
13:39 66.4 °F 59.4 °F 29.6 in NW 4 mph 18 mph 78% 0.02 in 32 W/m2
13:44 64.2 °F 59 °F 29.6 in WNW 4.9 mph 6 mph 83% 0.02 in 77 W/m2
13:49 63.1 °F 58.6 °F 29.6 in West 4 mph 18 mph 85% 0.04 in 63 W/m2
13:54 62.1 °F 58.1 °F 29.6 in WNW 4 mph 10 mph 87% 0.05 in 58 W/m2
13:59 61.5 °F 57.9 °F 29.6 in NW 4 mph 8 mph 88% 0.06 in 70 W/m2
14:04 61.3 °F 58.1 °F 29.6 in WNW 8.1 mph 9 mph 89% 0.06 in 107 W/m2
14:09 61.3 °F 58.5 °F 29.6 in West 0.9 mph 5 mph 90% 0.07 in 158 W/m2
14:14 61.3 °F 58.6 °F 29.6 in West 9 mph 9 mph 91% 0.08 in 171 W/m2
14:19 61.3 °F 58.6 °F 29.6 in WSW 2.9 mph 5 mph 91% 0.09 in 202 W/m2
14:24 61.5 °F 58.8 °F 29.6 in North 2 mph 5 mph 91% 0.09 in 213 W/m2
14:29 61.5 °F 58.8 °F 29.6 in North 2.9 mph 7 mph 91% 0.09 in 193 W/m2
14:34 61.5 °F 58.8 °F 29.6 in WNW 4 mph 4 mph 91% 0.09 in 237 W/m2
14:39 61.5 °F 58.8 °F 29.6 in NW 0.9 mph 4 mph 91% 0.09 in 250 W/m2
14:44 61.9 °F 59.2 °F 29.6 in WNW 4 mph 8 mph 91% 0.08 in 248 W/m2
14:49 62.1 °F 59.7 °F 29.6 in NW 2.9 mph 4 mph 92% 0.06 in 227 W/m2
14:54 62.1 °F 59.4 °F 29.6 in ENE 4 mph 6 mph 91% 0.06 in 176 W/m2
14:59 62.1 °F 59.4 °F 29.6 in WNW 2.9 mph 5 mph 91% 0.05 in 149 W/m2
15:04 62.1 °F 59.4 °F 29.6 in East 0.9 mph 4 mph 91% 0.04 in 98 W/m2
15:09 62.1 °F 59.4 °F 29.6 in NNE 2 mph 2 mph 91% 0.03 in 146 W/m2
15:14 62.1 °F 59.4 °F 29.6 in WNW 4 mph 6 mph 91% 0.02 in 174 W/m2
15:19 62.1 °F 59.4 °F 29.6 in NW 4.9 mph 8 mph 91% 0.02 in 81 W/m2
15:24 61.9 °F 59.2 °F 29.6 in North 2 mph 4 mph 91% 0.01 in 62 W/m2
15:29 61.9 °F 59.2 °F 29.6 in Calm   4 mph 91% 0.01 in 118 W/m2
15:34 61.9 °F 59.2 °F 29.6 in NE 0.9 mph 1 mph 91% 0.02 in 91 W/m2
15:39 61.9 °F 59.2 °F 29.6 in Calm   6 mph 91% 0.01 in 84 W/m2
15:44 61.9 °F 59.5 °F 29.6 in NW 2.9 mph 4 mph 92% 0.02 in 120 W/m2
15:49 61.9 °F 59.5 °F 29.6 in NE 2 mph 5 mph 92% 0.02 in 105 W/m2
15:54 61.9 °F 59.5 °F 29.6 in North 0.9 mph 4 mph 92% 0.02 in 88 W/m2
15:59 61.7 °F 59.4 °F 29.6 in ENE 2 mph 4 mph 92% 0.02 in 93 W/m2
16:04 61.9 °F 59.5 °F 29.6 in NE 2 mph 4 mph 92% 0.03 in 70 W/m2
16:09 61.9 °F 59.5 °F 29.6 in WNW 4.9 mph 9 mph 92% 0.03 in 67 W/m2
16:14 61.7 °F 59.4 °F 29.7 in East 4 mph 5 mph 92% 0.04 in 69 W/m2
16:19 61.7 °F 59.4 °F 29.7 in West 2.9 mph 6 mph 92% 0.04 in 76 W/m2
16:24 61.7 °F 59.4 °F 29.7 in ENE 2 mph 4 mph 92% 0.05 in 60 W/m2
16:29 61.5 °F 59.2 °F 29.7 in ENE 2.9 mph 3 mph 92% 0.06 in 98 W/m2
16:34 61.5 °F 59.2 °F 29.7 in NE 2.9 mph 4 mph 92% 0.05 in 105 W/m2
16:39 61.5 °F 59.2 °F 29.7 in North 4.9 mph 5 mph 92% 0.05 in 107 W/m2
16:44 61.7 °F 59.4 °F 29.7 in ENE 2.9 mph 4 mph 92% 0.04 in 125 W/m2
16:49 61.7 °F 59.4 °F 29.7 in ESE 2 mph 5 mph 92% 0.04 in 70 W/m2
16:54 61.5 °F 59.2 °F 29.7 in NNW 0.9 mph 4 mph 92% 0.04 in 70 W/m2
16:59 61.7 °F 59.4 °F 29.7 in NW 2.9 mph 3 mph 92% 0.04 in 33 W/m2
17:04 61.5 °F 59.2 °F 29.7 in WSW 0.9 mph 2 mph 92% 0.06 in 46 W/m2
17:09 61.3 °F 59 °F 29.7 in NNW 2 mph 7 mph 92% 0.06 in 35 W/m2
17:14 61.2 °F 58.5 °F 29.7 in WNW 4 mph 4 mph 91% 0.07 in 47 W/m2
17:19 61.2 °F 58.5 °F 29.7 in NW 4 mph 4 mph 91% 0.07 in 62 W/m2
17:24 61 °F 58.3 °F 29.7 in NW 2 mph 4 mph 91% 0.06 in 49 W/m2
17:29 60.8 °F 58.1 °F 29.7 in NNE 2.9 mph 5 mph 91% 0.06 in 53 W/m2
17:34 60.6 °F 57.9 °F 29.7 in East 2 mph 3 mph 91% 0.06 in 67 W/m2
17:39 60.6 °F 57.9 °F 29.7 in WNW 2.9 mph 5 mph 91% 0.06 in 58 W/m2
17:44 60.6 °F 57.9 °F 29.7 in Calm   3 mph 91% 0.06 in 53 W/m2
17:49 60.6 °F 57.9 °F 29.7 in NW 2 mph 4 mph 91% 0.06 in 28 W/m2
17:54 60.4 °F 57.7 °F 29.7 in NE 0.9 mph 5 mph 91% 0.05 in 30 W/m2
17:59 59.9 °F 56.7 °F 29.7 in WSW 2 mph 15 mph 89% 0.05 in 28 W/m2
18:04 59.4 °F 55.8 °F 29.7 in NW 12.1 mph 12 mph 88% 0.02 in 26 W/m2
18:09 59 °F 55.8 °F 29.7 in WNW 2.9 mph 15 mph 89% 0.02 in 16 W/m2
18:14 58.6 °F 55.4 °F 29.7 in SSW 2.9 mph 8 mph 89% 0.01 in 18 W/m2
18:19 58.1 °F 54.9 °F 29.7 in West 2.9 mph 6 mph 89% 0.01 in 18 W/m2
18:24 57.7 °F 54.5 °F 29.8 in WNW 4.9 mph 8 mph 89% 0.01 in 18 W/m2
18:29 57.6 °F 54.3 °F 29.8 in West 2.9 mph 10 mph 89% 0.01 in 12 W/m2
18:34 57.2 °F 54 °F 29.8 in West 4 mph 9 mph 89% 0.01 in 16 W/m2
18:39 56.8 °F 53.6 °F 29.8 in WNW 4 mph 5 mph 89% 0.01 in 14 W/m2
18:44 56.7 °F 53.8 °F 29.8 in West 2.9 mph 11 mph 90% 0.01 in 11 W/m2
18:49 56.5 °F 53.6 °F 29.8 in WSW 2.9 mph 8 mph 90% 0.01 in 9 W/m2
18:54 56.3 °F 53.4 °F 29.8 in WNW 4.9 mph 6 mph 90% 0.01 in 5 W/m2
18:59 56.1 °F 53.2 °F 29.8 in WSW 0.9 mph 8 mph 90% 0.01 in 0 W/m2
19:04 55.9 °F 53.1 °F 29.8 in SW 4 mph 8 mph 90% 0 in 0 W/m2
19:09 55.8 °F 52.9 °F 29.8 in WSW 2 mph 5 mph 90% 0 in 0 W/m2
19:14 55.6 °F 52.7 °F 29.8 in WNW 4.9 mph 8 mph 90% 0 in 0 W/m2
19:19 55.4 °F 52.9 °F 29.8 in WNW 0.9 mph 2 mph 91% 0 in 0 W/m2
19:24 55.2 °F 52.7 °F 29.8 in WSW 2.9 mph 8 mph 91% 0 in 0 W/m2
19:29 55 °F 52.5 °F 29.8 in NW 0.9 mph 4 mph 91% 0 in 0 W/m2
19:35 55 °F 52.5 °F 29.8 in West 2 mph 5 mph 91% 0 in 0 W/m2
19:40 55 °F 52.5 °F 29.8 in West 2 mph 6 mph 91% 0 in 0 W/m2
19:45 55 °F 52.5 °F 29.8 in WNW 0.9 mph 4 mph 91% 0 in 0 W/m2
19:50 54.9 °F 52.3 °F 29.8 in West 0.9 mph 5 mph 91% 0 in 0 W/m2
19:55 54.9 °F 52.3 °F 29.8 in Calm   5 mph 91% 0 in 0 W/m2
20:00 54.9 °F 52.3 °F 29.8 in WNW 2 mph 2 mph 91% 0 in 0 W/m2
20:05 54.7 °F 52.2 °F 29.9 in Calm   4 mph 91% 0 in 0 W/m2
20:10 54.7 °F 52.2 °F 29.9 in West 2.9 mph 4 mph 91% 0 in 0 W/m2
20:15 54.7 °F 52.2 °F 29.9 in Calm   4 mph 91% 0 in 0 W/m2
20:20 54.5 °F 52 °F 29.9 in Calm   3 mph 91% 0 in 0 W/m2
20:25 54.5 °F 52 °F 29.9 in NW 0.9 mph 4 mph 91% 0 in 0 W/m2
20:30 54.5 °F 52.2 °F 29.9 in Calm   2 mph 92% 0 in 0 W/m2
20:35 54.3 °F 52 °F 29.9 in NW 2.9 mph 6 mph 92% 0 in 0 W/m2
20:40 54.3 °F 52 °F 29.9 in Calm   2 mph 92% 0 in 0 W/m2
20:45 54.3 °F 52 °F 29.9 in Calm   5 mph 92% 0 in 0 W/m2
20:50 54.3 °F 52 °F 29.9 in Calm   4 mph 92% 0 in 0 W/m2
20:55 54.3 °F 52 °F 29.9 in West 2 mph 3 mph 92% 0 in 0 W/m2
21:00 54.3 °F 52 °F 29.9 in Calm     92% 0 in 0 W/m2
21:05 54.3 °F 52 °F 29.9 in Calm   2 mph 92% 0 in 0 W/m2
21:10 54.3 °F 52 °F 29.9 in NNE 0.9 mph 1 mph 92% 0 in 0 W/m2
21:15 54.3 °F 52 °F 29.9 in Calm   3 mph 92% 0 in 0 W/m2
21:20 54.3 °F 52 °F 29.9 in West 0.9 mph 2 mph 92% 0 in 0 W/m2
21:25 54.1 °F 51.8 °F 29.9 in Calm   3 mph 92% 0 in 0 W/m2
21:30 54.3 °F 52 °F 29.9 in WNW 0.9 mph 2 mph 92% 0 in 0 W/m2
21:35 54.3 °F 52.3 °F 29.9 in NW 2 mph 6 mph 93% 0 in 0 W/m2
21:40 54.3 °F 52.3 °F 29.9 in NW 2 mph 3 mph 93% 0 in 0 W/m2
21:45 54.3 °F 52.3 °F 29.9 in Calm   2 mph 93% 0 in 0 W/m2
21:50 54.3 °F 52.3 °F 29.9 in Calm   3 mph 93% 0 in 0 W/m2
21:55 54.3 °F 52.3 °F 29.9 in WNW 0.9 mph 2 mph 93% 0 in 0 W/m2
22:00 54.3 °F 52.3 °F 29.9 in West 0.9 mph 1 mph 93% 0 in 0 W/m2
22:05 54.3 °F 52.3 °F 29.9 in Calm   2 mph 93% 0 in 0 W/m2
22:10 54.3 °F 52 °F 29.9 in WNW 0.9 mph 3 mph 92% 0 in 0 W/m2
22:15 54.3 °F 52.3 °F 29.9 in NW 2 mph 4 mph 93% 0 in 0 W/m2
22:20 54.1 °F 52.2 °F 29.9 in NW 2 mph 4 mph 93% 0 in 0 W/m2
22:25 54.3 °F 52 °F 29.9 in Calm   3 mph 92% 0 in 0 W/m2
22:30 54.1 °F 51.8 °F 29.9 in ESE 0.9 mph 3 mph 92% 0 in 0 W/m2
22:35 54.1 °F 51.8 °F 29.9 in West 2 mph 2 mph 92% 0 in 0 W/m2
22:40 54.1 °F 51.8 °F 29.9 in WNW 2 mph 2 mph 92% 0 in 0 W/m2
22:45 54 °F 51.6 °F 29.9 in SSW 0.9 mph 1 mph 92% 0 in 0 W/m2
22:50 54 °F 52 °F 29.9 in SSW 0.9 mph 1 mph 93% 0 in 0 W/m2
22:55 54 °F 52 °F 29.9 in Calm     93% 0 in 0 W/m2
23:00 54 °F 52 °F 29.9 in East 0.9 mph 2 mph 93% 0 in 0 W/m2
23:05 54 °F 52 °F 29.9 in NE 0.9 mph 2 mph 93% 0 in 0 W/m2
23:10 54 °F 52 °F 29.9 in Calm   2 mph 93% 0 in 0 W/m2
23:15 54 °F 52 °F 29.9 in NNW 0.9 mph 1 mph 93% 0 in 0 W/m2
23:20 54 °F 52 °F 29.9 in Calm   2 mph 93% 0 in 0 W/m2
23:25 54 °F 52 °F 29.9 in NW 0.9 mph 2 mph 93% 0 in 0 W/m2
23:30 54 °F 52 °F 29.9 in Calm   2 mph 93% 0 in 0 W/m2
23:35 54 °F 52 °F 29.9 in ESE 0.9 mph 3 mph 93% 0 in 0 W/m2
23:40 54 °F 52 °F 29.9 in Calm   1 mph 93% 0 in 0 W/m2
23:45 54 °F 52 °F 29.9 in Calm   1 mph 93% 0 in 0 W/m2
23:50 54 °F 52 °F 29.9 in Calm   1 mph 93% 0 in 0 W/m2
23:55 54 °F 52 °F 29.9 in Calm     93% 0 in 0 W/m2
Juneau County Weather
Compliments of Weather Underground - 4 mb